Wetterdaten: aktuell Freitag, 12.08.2022 23:00
Datum Zeit Temp. Feuchte Luftdruck Nieders. Wind Richtung Richtung Sonnenschein Solar Taupunkt Windchill Windben
12.08.2022 23:00 21,9 C 42 % 1016,5 hPa 0,0 l/m 0,0 km/h (0 Bft) O-SO 102 0 min 0 W/m 8,4 C 21,9 C 0,0 km/h (0 Bft)
12.08.2022 22:55 21,8 C 43 % 1016,5 hPa 0,0 l/m 0,0 km/h (0 Bft) O-SO 102 0 min 0 W/m 8,7 C 21,8 C 0,0 km/h (0 Bft)
12.08.2022 22:50 21,6 C 42 % 1016,5 hPa 0,0 l/m 0,0 km/h (0 Bft) O-SO 102 0 min 0 W/m 8,1 C 21,6 C 0,0 km/h (0 Bft)
12.08.2022 22:45 21,6 C 42 % 1016,4 hPa 0,0 l/m 0,0 km/h (0 Bft) O-SO 102 0 min 0 W/m 8,1 C 21,6 C 0,0 km/h (0 Bft)
12.08.2022 22:40 21,8 C 41 % 1016,4 hPa 0,0 l/m 0,0 km/h (0 Bft) O-SO 102 0 min 0 W/m 8,0 C 21,8 C 0,0 km/h (0 Bft)
12.08.2022 22:35 22,0 C 41 % 1016,4 hPa 0,0 l/m 0,0 km/h (0 Bft) O-SO 102 0 min 0 W/m 8,1 C 22,0 C 0,0 km/h (0 Bft)
12.08.2022 22:30 22,2 C 40 % 1016,3 hPa 0,0 l/m 0,0 km/h (0 Bft) O-SO 102 0 min 0 W/m 8,0 C 22,2 C 0,0 km/h (0 Bft)
12.08.2022 22:25 22,3 C 40 % 1016,3 hPa 0,0 l/m 0,0 km/h (0 Bft) O-SO 102 0 min 0 W/m 8,0 C 22,3 C 0,0 km/h (0 Bft)
12.08.2022 22:20 22,4 C 40 % 1016,3 hPa 0,0 l/m 0,1 km/h (0 Bft) O-SO 102 0 min 0 W/m 8,1 C 22,4 C 3,2 km/h (1 Bft)
12.08.2022 22:15 22,4 C 39 % 1016,2 hPa 0,0 l/m 0,0 km/h (0 Bft) O 101 0 min 0 W/m 7,8 C 22,4 C 0,0 km/h (0 Bft)
12.08.2022 22:10 22,5 C 40 % 1016,2 hPa 0,0 l/m 0,0 km/h (0 Bft) O 101 0 min 0 W/m 8,2 C 22,5 C 0,0 km/h (0 Bft)
12.08.2022 22:05 22,6 C 39 % 1016,2 hPa 0,0 l/m 0,0 km/h (0 Bft) O 101 0 min 0 W/m 7,9 C 22,6 C 0,0 km/h (0 Bft)
12.08.2022 22:00 22,5 C 39 % 1016,1 hPa 0,0 l/m 0,0 km/h (0 Bft) O 101 0 min 0 W/m 7,8 C 22,5 C 0,0 km/h (0 Bft)
12.08.2022 21:55 22,2 C 40 % 1016,1 hPa 0,0 l/m 0,0 km/h (0 Bft) O 101 0 min 0 W/m 8,0 C 22,2 C 0,0 km/h (0 Bft)
12.08.2022 21:50 22,1 C 40 % 1016,1 hPa 0,0 l/m 0,0 km/h (0 Bft) O 101 0 min 0 W/m 7,9 C 22,1 C 0,0 km/h (0 Bft)
12.08.2022 21:45 22,1 C 40 % 1015,9 hPa 0,0 l/m 0,0 km/h (0 Bft) O 101 0 min 0 W/m 7,9 C 22,1 C 0,0 km/h (0 Bft)
12.08.2022 21:40 22,2 C 40 % 1016,0 hPa 0,0 l/m 0,0 km/h (0 Bft) O 101 0 min 0 W/m 8,0 C 22,2 C 0,0 km/h (0 Bft)
12.08.2022 21:35 22,6 C 40 % 1016,0 hPa 0,0 l/m 0,0 km/h (0 Bft) O 101 0 min 0 W/m 8,3 C 22,6 C 0,0 km/h (0 Bft)
12.08.2022 21:30 22,9 C 38 % 1015,9 hPa 0,0 l/m 0,0 km/h (0 Bft) O 101 0 min 0 W/m 7,8 C 22,9 C 0,0 km/h (0 Bft)
12.08.2022 21:25 23,4 C 37 % 1015,9 hPa 0,0 l/m 0,0 km/h (0 Bft) O 101 0 min 0 W/m 7,9 C 23,4 C 0,0 km/h (0 Bft)
12.08.2022 21:20 23,9 C 36 % 1015,8 hPa 0,0 l/m 0,0 km/h (0 Bft) O 101 0 min 0 W/m 7,9 C 23,9 C 0,0 km/h (0 Bft)
12.08.2022 21:15 24,4 C 34 % 1015,8 hPa 0,0 l/m 0,0 km/h (0 Bft) O 101 0 min 0 W/m 7,5 C 24,4 C 0,0 km/h (0 Bft)
12.08.2022 21:10 24,9 C 33 % 1015,7 hPa 0,0 l/m 0,0 km/h (0 Bft) O 101 0 min 0 W/m 7,5 C 24,9 C 0,0 km/h (0 Bft)
12.08.2022 21:05 25,4 C 32 % 1015,7 hPa 0,0 l/m 0,0 km/h (0 Bft) O 101 0 min 0 W/m 7,5 C 25,4 C 0,0 km/h (0 Bft)
12.08.2022 21:00 25,9 C 31 % 1015,7 hPa 0,0 l/m 0,0 km/h (0 Bft) O 101 0 min 0 W/m 7,5 C 25,9 C 0,0 km/h (0 Bft)
12.08.2022 20:55 26,4 C 31 % 1015,7 hPa 0,0 l/m 0,0 km/h (0 Bft) O 101 0 min 0 W/m 7,9 C 26,4 C 0,0 km/h (0 Bft)
12.08.2022 20:50 26,7 C 30 % 1015,6 hPa 0,0 l/m 0,0 km/h (0 Bft) O 101 0 min 0 W/m 7,7 C 26,7 C 0,0 km/h (0 Bft)
12.08.2022 20:45 26,9 C 30 % 1015,6 hPa 0,0 l/m 0,1 km/h (0 Bft) O 101 0 min 5 W/m 7,8 C 26,9 C 3,2 km/h (1 Bft)
12.08.2022 20:40 27,2 C 30 % 1015,6 hPa 0,0 l/m 0,0 km/h (0 Bft) O 101 0 min 7 W/m 8,1 C 27,2 C 0,0 km/h (0 Bft)
12.08.2022 20:35 27,4 C 29 % 1015,6 hPa 0,0 l/m 0,2 km/h (0 Bft) O 101 0 min 9 W/m 7,8 C 27,4 C 4,8 km/h (1 Bft)
12.08.2022 20:30 27,6 C 29 % 1015,5 hPa 0,0 l/m 0,0 km/h (0 Bft) O 101 0 min 12 W/m 7,9 C 27,6 C 0,0 km/h (0 Bft)
12.08.2022 20:25 27,7 C 29 % 1015,5 hPa 0,0 l/m 0,1 km/h (0 Bft) O 101 0 min 14 W/m 8,0 C 27,7 C 3,2 km/h (1 Bft)
12.08.2022 20:20 27,8 C 28 % 1015,4 hPa 0,0 l/m 0,2 km/h (0 Bft) O 101 0 min 16 W/m 7,6 C 27,8 C 6,4 km/h (2 Bft)
12.08.2022 20:15 27,9 C 28 % 1015,3 hPa 0,0 l/m 0,0 km/h (0 Bft) O 96 0 min 18 W/m 7,7 C 27,9 C 1,6 km/h (1 Bft)
12.08.2022 20:10 28,2 C 29 % 1015,3 hPa 0,0 l/m 0,0 km/h (0 Bft) O 96 0 min 19 W/m 8,5 C 28,2 C 0,0 km/h (0 Bft)
12.08.2022 20:05 28,3 C 27 % 1015,2 hPa 0,0 l/m 0,2 km/h (0 Bft) O 97 0 min 23 W/m 7,5 C 28,3 C 6,4 km/h (2 Bft)
12.08.2022 20:00 28,4 C 28 % 1015,2 hPa 0,0 l/m 0,0 km/h (0 Bft) O-SO 114 0 min 26 W/m 8,1 C 28,4 C 0,0 km/h (0 Bft)
12.08.2022 19:55 28,5 C 27 % 1015,2 hPa 0,0 l/m 0,1 km/h (0 Bft) O-SO 114 0 min 30 W/m 7,7 C 28,5 C 3,2 km/h (1 Bft)
12.08.2022 19:50 28,6 C 27 % 1015,2 hPa 0,0 l/m 0,0 km/h (0 Bft) O-SO 115 0 min 40 W/m 7,8 C 28,6 C 1,6 km/h (1 Bft)
12.08.2022 19:45 28,7 C 27 % 1015,2 hPa 0,0 l/m 0,3 km/h (0 Bft) S 178 0 min 46 W/m 7,8 C 28,7 C 4,8 km/h (1 Bft)
12.08.2022 19:40 28,8 C 26 % 1015,2 hPa 0,0 l/m 0,6 km/h (0 Bft) SO 126 0 min 44 W/m 7,4 C 28,8 C 6,4 km/h (2 Bft)
12.08.2022 19:35 28,9 C 26 % 1015,2 hPa 0,0 l/m 0,3 km/h (0 Bft) SO 126 0 min 40 W/m 7,5 C 28,9 C 6,4 km/h (2 Bft)
12.08.2022 19:30 29,0 C 25 % 1015,1 hPa 0,0 l/m 1,6 km/h (1 Bft) SO 126 0 min 47 W/m 7,0 C 29,0 C 14,5 km/h (3 Bft)
12.08.2022 19:25 29,2 C 25 % 1015,2 hPa 0,0 l/m 0,8 km/h (0 Bft) O-SO 113 0 min 53 W/m 7,1 C 29,2 C 11,3 km/h (2 Bft)
12.08.2022 19:20 29,5 C 25 % 1015,2 hPa 0,0 l/m 0,0 km/h (0 Bft) O-SO 107 0 min 35 W/m 7,4 C 29,5 C 1,6 km/h (1 Bft)
12.08.2022 19:15 29,8 C 24 % 1015,2 hPa 0,0 l/m 0,3 km/h (0 Bft) O-SO 107 0 min 58 W/m 7,0 C 29,8 C 6,4 km/h (2 Bft)
12.08.2022 19:10 30,1 C 24 % 1015,2 hPa 0,0 l/m 0,4 km/h (0 Bft) O-SO 106 5 min 174 W/m 7,3 C 30,1 C 11,3 km/h (2 Bft)
12.08.2022 19:05 30,1 C 25 % 1015,2 hPa 0,0 l/m 0,0 km/h (0 Bft) N-NW 342 5 min 190 W/m 7,9 C 30,1 C 0,0 km/h (0 Bft)
12.08.2022 19:00 30,1 C 25 % 1015,2 hPa 0,0 l/m 0,5 km/h (0 Bft) N-NW 341 5 min 202 W/m 7,9 C 30,1 C 9,7 km/h (2 Bft)
12.08.2022 18:55 30,0 C 25 % 1015,3 hPa 0,0 l/m 0,9 km/h (0 Bft) O-SO 119 5 min 216 W/m 7,8 C 30,0 C 12,9 km/h (3 Bft)
12.08.2022 18:50 30,0 C 25 % 1015,3 hPa 0,0 l/m 1,9 km/h (1 Bft) O-SO 123 5 min 239 W/m 7,8 C 30,0 C 16,1 km/h (3 Bft)
12.08.2022 18:45 30,1 C 25 % 1015,3 hPa 0,0 l/m 0,1 km/h (0 Bft) O-SO 119 0 min 83 W/m 7,9 C 30,1 C 3,2 km/h (1 Bft)
12.08.2022 18:40 29,8 C 27 % 1015,3 hPa 0,0 l/m 0,3 km/h (0 Bft) O-SO 118 5 min 250 W/m 8,8 C 29,8 C 6,4 km/h (2 Bft)
12.08.2022 18:35 29,5 C 26 % 1015,3 hPa 0,0 l/m 0,4 km/h (0 Bft) O-SO 122 5 min 271 W/m 8,0 C 29,5 C 6,4 km/h (2 Bft)
12.08.2022 18:30 29,1 C 26 % 1015,4 hPa 0,0 l/m 0,0 km/h (0 Bft) O-SO 107 5 min 306 W/m 7,6 C 29,1 C 0,0 km/h (0 Bft)
12.08.2022 18:25 29,1 C 27 % 1015,5 hPa 0,0 l/m 0,0 km/h (0 Bft) O-SO 107 0 min 93 W/m 8,2 C 29,1 C 0,0 km/h (0 Bft)
12.08.2022 18:20 29,2 C 26 % 1015,5 hPa 0,0 l/m 0,0 km/h (0 Bft) O-SO 107 0 min 58 W/m 7,7 C 29,2 C 0,0 km/h (0 Bft)
12.08.2022 18:15 29,4 C 27 % 1015,5 hPa 0,0 l/m 0,0 km/h (0 Bft) O-SO 107 0 min 63 W/m 8,4 C 29,4 C 0,0 km/h (0 Bft)
12.08.2022 18:10 29,6 C 26 % 1015,6 hPa 0,0 l/m 0,0 km/h (0 Bft) O-SO 107 0 min 84 W/m 8,0 C 29,6 C 0,0 km/h (0 Bft)
12.08.2022 18:05 29,8 C 25 % 1015,6 hPa 0,0 l/m 0,2 km/h (0 Bft) O-SO 107 0 min 109 W/m 7,6 C 29,8 C 4,8 km/h (1 Bft)
12.08.2022 18:00 29,8 C 25 % 1015,5 hPa 0,0 l/m 3,1 km/h (1 Bft) O-SO 109 5 min 274 W/m 7,6 C 29,8 C 12,9 km/h (3 Bft)
12.08.2022 17:55 29,8 C 25 % 1015,6 hPa 0,0 l/m 1,1 km/h (1 Bft) O 84 5 min 176 W/m 7,6 C 29,8 C 12,9 km/h (3 Bft)
12.08.2022 17:50 29,8 C 25 % 1015,5 hPa 0,0 l/m 0,4 km/h (0 Bft) O-SO 112 5 min 185 W/m 7,6 C 29,8 C 6,4 km/h (2 Bft)
12.08.2022 17:45 29,8 C 26 % 1015,6 hPa 0,0 l/m 2,9 km/h (1 Bft) O-SO 112 5 min 211 W/m 8,2 C 29,8 C 11,3 km/h (2 Bft)
12.08.2022 17:40 29,6 C 26 % 1015,6 hPa 0,0 l/m 0,2 km/h (0 Bft) O-SO 106 5 min 461 W/m 8,0 C 29,6 C 6,4 km/h (2 Bft)
12.08.2022 17:35 29,4 C 26 % 1015,7 hPa 0,0 l/m 0,1 km/h (0 Bft) O 96 5 min 188 W/m 7,9 C 29,4 C 4,8 km/h (1 Bft)
12.08.2022 17:30 29,6 C 25 % 1015,7 hPa 0,0 l/m 3,8 km/h (1 Bft) O 96 0 min 137 W/m 7,5 C 29,6 C 22,5 km/h (4 Bft)
12.08.2022 17:25 29,8 C 25 % 1015,7 hPa 0,0 l/m 1,0 km/h (0 Bft) O-SO 115 0 min 146 W/m 7,6 C 29,8 C 11,3 km/h (2 Bft)
12.08.2022 17:20 30,2 C 24 % 1015,7 hPa 0,0 l/m 2,6 km/h (1 Bft) SO 130 0 min 146 W/m 7,4 C 30,2 C 12,9 km/h (3 Bft)
12.08.2022 17:15 30,5 C 25 % 1015,8 hPa 0,0 l/m 1,8 km/h (1 Bft) O-SO 111 5 min 163 W/m 8,2 C 30,5 C 14,5 km/h (3 Bft)
12.08.2022 17:10 30,6 C 24 % 1015,7 hPa 0,0 l/m 6,0 km/h (2 Bft) O 101 5 min 241 W/m 7,7 C 30,6 C 27,4 km/h (5 Bft)
12.08.2022 17:05 30,2 C 24 % 1015,7 hPa 0,0 l/m 3,8 km/h (1 Bft) O-SO 122 5 min 612 W/m 7,4 C 30,2 C 16,1 km/h (3 Bft)
12.08.2022 17:00 30,0 C 25 % 1015,7 hPa 0,0 l/m 0,3 km/h (0 Bft) O-SO 109 5 min 160 W/m 7,8 C 30,0 C 6,4 km/h (2 Bft)
12.08.2022 16:55 30,4 C 24 % 1015,7 hPa 0,0 l/m 1,9 km/h (1 Bft) O-SO 109 0 min 120 W/m 7,5 C 30,4 C 12,9 km/h (3 Bft)
12.08.2022 16:50 31,1 C 23 % 1015,8 hPa 0,0 l/m 2,6 km/h (1 Bft) O 80 0 min 100 W/m 7,5 C 31,1 C 19,3 km/h (3 Bft)
12.08.2022 16:45 31,4 C 23 % 1015,8 hPa 0,0 l/m 7,1 km/h (2 Bft) O-NO 76 5 min 543 W/m 7,7 C 31,4 C 17,7 km/h (3 Bft)
12.08.2022 16:40 31,4 C 24 % 1015,7 hPa 0,0 l/m 0,5 km/h (0 Bft) O-SO 103 5 min 360 W/m 8,4 C 31,4 C 9,7 km/h (2 Bft)
12.08.2022 16:35 31,3 C 24 % 1015,8 hPa 0,0 l/m 4,6 km/h (1 Bft) O-NO 61 5 min 550 W/m 8,3 C 31,3 C 20,9 km/h (4 Bft)
12.08.2022 16:30 31,1 C 25 % 1015,8 hPa 0,0 l/m 3,5 km/h (1 Bft) N-NW 333 5 min 554 W/m 8,7 C 31,1 C 17,7 km/h (3 Bft)
12.08.2022 16:25 30,8 C 25 % 1015,8 hPa 0,0 l/m 1,9 km/h (1 Bft) O-SO 109 5 min 554 W/m 8,5 C 30,8 C 17,7 km/h (3 Bft)
12.08.2022 16:20 30,6 C 26 % 1015,7 hPa 0,0 l/m 1,3 km/h (1 Bft) SO 124 5 min 554 W/m 8,9 C 30,6 C 17,7 km/h (3 Bft)
12.08.2022 16:15 30,3 C 25 % 1015,8 hPa 0,0 l/m 1,6 km/h (1 Bft) O 100 5 min 578 W/m 8,1 C 30,3 C 12,9 km/h (3 Bft)
12.08.2022 16:10 30,2 C 25 % 1015,8 hPa 0,0 l/m 0,6 km/h (0 Bft) O-SO 105 5 min 626 W/m 8,0 C 30,2 C 11,3 km/h (2 Bft)
12.08.2022 16:05 30,3 C 25 % 1015,9 hPa 0,0 l/m 1,4 km/h (1 Bft) O-SO 105 5 min 635 W/m 8,1 C 30,3 C 9,7 km/h (2 Bft)
12.08.2022 16:00 30,8 C 24 % 1015,9 hPa 0,0 l/m 0,7 km/h (0 Bft) O 89 5 min 153 W/m 7,9 C 30,8 C 9,7 km/h (2 Bft)
12.08.2022 15:55 31,5 C 23 % 1015,9 hPa 0,0 l/m 0,2 km/h (0 Bft) NW 315 5 min 192 W/m 7,8 C 31,5 C 4,8 km/h (1 Bft)
12.08.2022 15:50 31,6 C 24 % 1015,8 hPa 0,0 l/m 1,1 km/h (1 Bft) N 355 5 min 800 W/m 8,5 C 31,6 C 9,7 km/h (2 Bft)
12.08.2022 15:45 31,2 C 24 % 1015,9 hPa 0,0 l/m 1,9 km/h (1 Bft) O-SO 121 5 min 838 W/m 8,2 C 31,2 C 14,5 km/h (3 Bft)
12.08.2022 15:40 30,9 C 24 % 1016,0 hPa 0,0 l/m 5,6 km/h (2 Bft) O 100 5 min 826 W/m 8,0 C 30,9 C 14,5 km/h (3 Bft)
12.08.2022 15:35 30,9 C 24 % 1016,0 hPa 0,0 l/m 3,1 km/h (1 Bft) O-SO 107 5 min 800 W/m 8,0 C 30,9 C 12,9 km/h (3 Bft)
12.08.2022 15:30 30,9 C 24 % 1016,2 hPa 0,0 l/m 10,9 km/h (2 Bft) O-SO 113 5 min 761 W/m 8,0 C 30,6 C 19,3 km/h (3 Bft)
12.08.2022 15:25 30,9 C 24 % 1016,1 hPa 0,0 l/m 4,8 km/h (1 Bft) O-NO 65 5 min 782 W/m 8,0 C 30,9 C 17,7 km/h (3 Bft)
12.08.2022 15:20 30,9 C 25 % 1016,2 hPa 0,0 l/m 0,5 km/h (0 Bft) O 101 5 min 758 W/m 8,6 C 30,9 C 6,4 km/h (2 Bft)
12.08.2022 15:15 30,8 C 26 % 1016,1 hPa 0,0 l/m 0,6 km/h (0 Bft) O-SO 105 5 min 759 W/m 9,1 C 30,8 C 4,8 km/h (1 Bft)
12.08.2022 15:10 30,8 C 25 % 1016,3 hPa 0,0 l/m 5,0 km/h (1 Bft) O-SO 105 5 min 772 W/m 8,5 C 30,8 C 19,3 km/h (3 Bft)
12.08.2022 15:05 30,8 C 25 % 1016,2 hPa 0,0 l/m 1,0 km/h (0 Bft) O-SO 111 5 min 766 W/m 8,5 C 30,8 C 9,7 km/h (2 Bft)
12.08.2022 15:00 30,9 C 24 % 1016,3 hPa 0,0 l/m 3,9 km/h (1 Bft) NO 39 5 min 765 W/m 8,0 C 30,9 C 20,9 km/h (4 Bft)
12.08.2022 14:55 31,1 C 24 % 1016,3 hPa 0,0 l/m 0,5 km/h (0 Bft) O-SO 122 5 min 766 W/m 8,1 C 31,1 C 6,4 km/h (2 Bft)
12.08.2022 14:50 31,0 C 24 % 1016,4 hPa 0,0 l/m 0,4 km/h (0 Bft) N-NW 348 5 min 756 W/m 8,0 C 31,0 C 9,7 km/h (2 Bft)
12.08.2022 14:45 30,8 C 25 % 1016,4 hPa 0,0 l/m 1,2 km/h (1 Bft) O-SO 113 5 min 777 W/m 8,5 C 30,8 C 9,7 km/h (2 Bft)
12.08.2022 14:40 30,8 C 26 % 1016,5 hPa 0,0 l/m 1,7 km/h (1 Bft) O 101 5 min 793 W/m 9,1 C 30,8 C 12,9 km/h (3 Bft)
12.08.2022 14:35 30,9 C 26 % 1016,5 hPa 0,0 l/m 2,4 km/h (1 Bft) O 101 5 min 805 W/m 9,1 C 30,9 C 12,9 km/h (3 Bft)
12.08.2022 14:30 30,7 C 25 % 1016,6 hPa 0,0 l/m 3,6 km/h (1 Bft) SO 131 5 min 812 W/m 8,4 C 30,7 C 20,9 km/h (4 Bft)
12.08.2022 14:25 30,2 C 25 % 1016,6 hPa 0,0 l/m 5,5 km/h (2 Bft) O-SO 105 5 min 824 W/m 8,0 C 30,2 C 22,5 km/h (4 Bft)
12.08.2022 14:20 30,2 C 26 % 1016,7 hPa 0,0 l/m 9,3 km/h (2 Bft) O-SO 119 5 min 838 W/m 8,5 C 30,0 C 27,4 km/h (5 Bft)
12.08.2022 14:15 30,1 C 27 % 1016,8 hPa 0,0 l/m 8,9 km/h (2 Bft) O-SO 110 5 min 830 W/m 9,0 C 29,9 C 20,9 km/h (4 Bft)
12.08.2022 14:10 30,0 C 27 % 1016,7 hPa 0,0 l/m 2,9 km/h (1 Bft) O 97 5 min 800 W/m 8,9 C 30,0 C 19,3 km/h (3 Bft)
12.08.2022 14:05 30,0 C 26 % 1016,8 hPa 0,0 l/m 2,1 km/h (1 Bft) O-NO 78 5 min 784 W/m 8,4 C 30,0 C 14,5 km/h (3 Bft)
12.08.2022 14:00 30,0 C 26 % 1016,9 hPa 0,0 l/m 3,1 km/h (1 Bft) O-SO 107 5 min 761 W/m 8,4 C 30,0 C 27,4 km/h (5 Bft)
12.08.2022 13:55 30,0 C 26 % 1016,8 hPa 0,0 l/m 11,1 km/h (2 Bft) O 99 5 min 707 W/m 8,4 C 29,6 C 27,4 km/h (5 Bft)
12.08.2022 13:50 30,0 C 26 % 1016,9 hPa 0,0 l/m 9,7 km/h (2 Bft) O-SO 108 5 min 693 W/m 8,4 C 29,7 C 24,1 km/h (4 Bft)
12.08.2022 13:45 30,1 C 26 % 1016,9 hPa 0,0 l/m 0,8 km/h (0 Bft) O-SO 107 5 min 687 W/m 8,5 C 30,1 C 11,3 km/h (2 Bft)
12.08.2022 13:40 30,0 C 27 % 1017,0 hPa 0,0 l/m 3,6 km/h (1 Bft) N 350 5 min 721 W/m 8,9 C 30,0 C 14,5 km/h (3 Bft)
12.08.2022 13:35 29,8 C 28 % 1017,1 hPa 0,0 l/m 0,9 km/h (0 Bft) O 101 5 min 759 W/m 9,3 C 29,8 C 9,7 km/h (2 Bft)
12.08.2022 13:30 29,6 C 28 % 1017,1 hPa 0,0 l/m 0,2 km/h (0 Bft) O 100 5 min 796 W/m 9,1 C 29,6 C 3,2 km/h (1 Bft)
12.08.2022 13:25 29,6 C 28 % 1017,2 hPa 0,0 l/m 2,0 km/h (1 Bft) O 99 5 min 810 W/m 9,1 C 29,6 C 11,3 km/h (2 Bft)
12.08.2022 13:20 29,5 C 28 % 1017,3 hPa 0,0 l/m 1,0 km/h (0 Bft) O-NO 74 5 min 812 W/m 9,1 C 29,5 C 17,7 km/h (3 Bft)
12.08.2022 13:15 29,3 C 29 % 1017,3 hPa 0,0 l/m 0,8 km/h (0 Bft) NW 313 5 min 814 W/m 9,4 C 29,3 C 11,3 km/h (2 Bft)
12.08.2022 13:10 29,2 C 29 % 1017,4 hPa 0,0 l/m 0,4 km/h (0 Bft) O-NO 60 5 min 803 W/m 9,3 C 29,2 C 6,4 km/h (2 Bft)
12.08.2022 13:05 29,2 C 29 % 1017,4 hPa 0,0 l/m 1,3 km/h (1 Bft) O-SO 107 5 min 802 W/m 9,3 C 29,2 C 11,3 km/h (2 Bft)
12.08.2022 13:00 29,2 C 28 % 1017,5 hPa 0,0 l/m 4,2 km/h (1 Bft) O-SO 103 5 min 802 W/m 8,8 C 29,2 C 19,3 km/h (3 Bft)
12.08.2022 12:55 29,0 C 30 % 1017,5 hPa 0,0 l/m 1,5 km/h (1 Bft) NW 309 5 min 805 W/m 9,6 C 29,0 C 12,9 km/h (3 Bft)
12.08.2022 12:50 28,9 C 30 % 1017,7 hPa 0,0 l/m 0,4 km/h (0 Bft) O-SO 113 5 min 791 W/m 9,6 C 28,9 C 4,8 km/h (1 Bft)
12.08.2022 12:45 28,9 C 30 % 1017,7 hPa 0,0 l/m 0,5 km/h (0 Bft) O 87 5 min 798 W/m 9,6 C 28,9 C 11,3 km/h (2 Bft)
12.08.2022 12:40 28,9 C 29 % 1017,8 hPa 0,0 l/m 1,6 km/h (1 Bft) O 95 5 min 798 W/m 9,1 C 28,9 C 14,5 km/h (3 Bft)
12.08.2022 12:35 28,9 C 29 % 1017,8 hPa 0,0 l/m 0,0 km/h (0 Bft) SO 127 5 min 789 W/m 9,1 C 28,9 C 0,0 km/h (0 Bft)
12.08.2022 12:30 28,9 C 29 % 1017,8 hPa 0,0 l/m 0,0 km/h (0 Bft) O-SO 114 5 min 786 W/m 9,1 C 28,9 C 0,0 km/h (0 Bft)
12.08.2022 12:25 28,8 C 29 % 1017,9 hPa 0,0 l/m 0,0 km/h (0 Bft) O 92 5 min 788 W/m 9,0 C 28,8 C 0,0 km/h (0 Bft)
12.08.2022 12:20 28,8 C 29 % 1018,0 hPa 0,0 l/m 1,6 km/h (1 Bft) O-SO 104 5 min 784 W/m 9,0 C 28,8 C 19,3 km/h (3 Bft)
12.08.2022 12:15 28,7 C 29 % 1018,1 hPa 0,0 l/m 0,0 km/h (0 Bft) O-SO 104 5 min 784 W/m 8,9 C 28,7 C 0,0 km/h (0 Bft)
12.08.2022 12:10 28,6 C 29 % 1018,2 hPa 0,0 l/m 4,0 km/h (1 Bft) O 98 5 min 780 W/m 8,8 C 28,6 C 24,1 km/h (4 Bft)
12.08.2022 12:05 28,7 C 29 % 1018,1 hPa 0,0 l/m 1,2 km/h (1 Bft) O-SO 106 5 min 779 W/m 8,9 C 28,7 C 17,7 km/h (3 Bft)
12.08.2022 12:00 28,8 C 29 % 1018,1 hPa 0,0 l/m 0,6 km/h (0 Bft) NW 322 5 min 768 W/m 9,0 C 28,8 C 8,0 km/h (2 Bft)
12.08.2022 11:55 28,8 C 29 % 1018,3 hPa 0,0 l/m 7,4 km/h (2 Bft) O-SO 110 5 min 763 W/m 9,0 C 28,7 C 20,9 km/h (4 Bft)
12.08.2022 11:50 28,8 C 30 % 1018,4 hPa 0,0 l/m 0,0 km/h (0 Bft) S-SO 152 5 min 754 W/m 9,5 C 28,8 C 0,0 km/h (0 Bft)
12.08.2022 11:45 28,6 C 30 % 1018,4 hPa 0,0 l/m 1,5 km/h (1 Bft) S-SO 152 5 min 752 W/m 9,3 C 28,6 C 9,7 km/h (2 Bft)
12.08.2022 11:40 28,4 C 30 % 1018,4 hPa 0,0 l/m 8,8 km/h (2 Bft) SO 132 5 min 749 W/m 9,1 C 28,1 C 20,9 km/h (4 Bft)
12.08.2022 11:35 28,3 C 29 % 1018,5 hPa 0,0 l/m 0,4 km/h (0 Bft) SO 127 5 min 742 W/m 8,5 C 28,3 C 4,8 km/h (1 Bft)
12.08.2022 11:30 28,3 C 29 % 1018,5 hPa 0,0 l/m 1,5 km/h (1 Bft) SO 132 5 min 737 W/m 8,5 C 28,3 C 11,3 km/h (2 Bft)
12.08.2022 11:25 28,3 C 29 % 1018,4 hPa 0,0 l/m 0,4 km/h (0 Bft) SO 133 5 min 731 W/m 8,5 C 28,3 C 12,9 km/h (3 Bft)
12.08.2022 11:20 28,3 C 28 % 1018,4 hPa 0,0 l/m 5,9 km/h (2 Bft) O-SO 105 5 min 721 W/m 8,0 C 28,3 C 19,3 km/h (3 Bft)
12.08.2022 11:15 28,2 C 30 % 1018,4 hPa 0,0 l/m 2,4 km/h (1 Bft) SO 129 5 min 719 W/m 9,0 C 28,2 C 16,1 km/h (3 Bft)
12.08.2022 11:10 28,3 C 30 % 1018,3 hPa 0,0 l/m 0,0 km/h (0 Bft) O-SO 111 5 min 708 W/m 9,0 C 28,3 C 0,0 km/h (0 Bft)
12.08.2022 11:05 28,3 C 30 % 1018,4 hPa 0,0 l/m 1,3 km/h (1 Bft) SO 133 5 min 705 W/m 9,0 C 28,3 C 12,9 km/h (3 Bft)
12.08.2022 11:00 28,3 C 31 % 1018,5 hPa 0,0 l/m 1,2 km/h (1 Bft) O-SO 106 5 min 696 W/m 9,5 C 28,3 C 11,3 km/h (2 Bft)
12.08.2022 10:55 27,8 C 33 % 1018,5 hPa 0,0 l/m 0,2 km/h (0 Bft) O 88 5 min 687 W/m 10,0 C 27,8 C 4,8 km/h (1 Bft)
12.08.2022 10:50 27,7 C 32 % 1018,6 hPa 0,0 l/m 0,9 km/h (0 Bft) O 87 5 min 673 W/m 9,5 C 27,7 C 16,1 km/h (3 Bft)
12.08.2022 10:45 27,9 C 32 % 1018,6 hPa 0,0 l/m 5,6 km/h (2 Bft) O-SO 121 5 min 664 W/m 9,7 C 27,9 C 19,3 km/h (3 Bft)
12.08.2022 10:40 27,8 C 32 % 1018,7 hPa 0,0 l/m 4,7 km/h (1 Bft) O-SO 104 5 min 652 W/m 9,6 C 27,8 C 16,1 km/h (3 Bft)
12.08.2022 10:35 27,7 C 31 % 1018,7 hPa 0,0 l/m 7,9 km/h (2 Bft) O-SO 110 5 min 647 W/m 9,0 C 27,5 C 17,7 km/h (3 Bft)
12.08.2022 10:30 27,8 C 31 % 1018,8 hPa 0,0 l/m 15,7 km/h (3 Bft) SO 127 5 min 631 W/m 9,1 C 26,6 C 27,4 km/h (5 Bft)
12.08.2022 10:25 27,6 C 33 % 1018,8 hPa 0,0 l/m 3,9 km/h (1 Bft) O-SO 121 5 min 626 W/m 9,9 C 27,6 C 11,3 km/h (2 Bft)
12.08.2022 10:20 27,4 C 34 % 1018,8 hPa 0,0 l/m 1,7 km/h (1 Bft) O 101 5 min 617 W/m 10,1 C 27,4 C 6,4 km/h (2 Bft)
12.08.2022 10:15 27,4 C 34 % 1018,8 hPa 0,0 l/m 2,1 km/h (1 Bft) O 92 5 min 606 W/m 10,1 C 27,4 C 16,1 km/h (3 Bft)
12.08.2022 10:10 27,1 C 35 % 1018,8 hPa 0,0 l/m 2,2 km/h (1 Bft) O-SO 107 5 min 592 W/m 10,3 C 27,1 C 14,5 km/h (3 Bft)
12.08.2022 10:05 26,9 C 35 % 1019,0 hPa 0,0 l/m 2,4 km/h (1 Bft) O-SO 121 5 min 580 W/m 10,1 C 26,9 C 11,3 km/h (2 Bft)
12.08.2022 10:00 27,0 C 34 % 1019,0 hPa 0,0 l/m 7,1 km/h (2 Bft) O-SO 113 5 min 568 W/m 9,8 C 26,9 C 17,7 km/h (3 Bft)
12.08.2022 09:55 26,6 C 37 % 1019,0 hPa 0,0 l/m 0,8 km/h (0 Bft) O-SO 118 5 min 554 W/m 10,7 C 26,6 C 11,3 km/h (2 Bft)
12.08.2022 09:50 26,1 C 38 % 1019,0 hPa 0,0 l/m 0,4 km/h (0 Bft) O-SO 115 5 min 547 W/m 10,7 C 26,1 C 4,8 km/h (1 Bft)
12.08.2022 09:45 25,7 C 38 % 1019,0 hPa 0,0 l/m 5,0 km/h (1 Bft) O-SO 115 5 min 534 W/m 10,3 C 25,7 C 17,7 km/h (3 Bft)
12.08.2022 09:40 25,0 C 40 % 1019,1 hPa 0,0 l/m 4,1 km/h (1 Bft) O-SO 114 5 min 524 W/m 10,4 C 25,0 C 12,9 km/h (3 Bft)
12.08.2022 09:35 24,0 C 46 % 1019,0 hPa 0,0 l/m 0,4 km/h (0 Bft) O 98 5 min 508 W/m 11,7 C 24,0 C 4,8 km/h (1 Bft)
12.08.2022 09:30 23,2 C 50 % 1019,0 hPa 0,0 l/m 0,1 km/h (0 Bft) O 96 5 min 497 W/m 12,2 C 23,2 C 1,6 km/h (1 Bft)
12.08.2022 09:25 22,7 C 50 % 1019,0 hPa 0,0 l/m 0,0 km/h (0 Bft) O 97 5 min 485 W/m 11,7 C 22,7 C 0,0 km/h (0 Bft)
12.08.2022 09:20 22,2 C 52 % 1019,1 hPa 0,0 l/m 0,0 km/h (0 Bft) O 97 5 min 475 W/m 11,9 C 22,2 C 0,0 km/h (0 Bft)
12.08.2022 09:15 21,8 C 54 % 1019,1 hPa 0,0 l/m 0,0 km/h (0 Bft) O 96 5 min 461 W/m 12,1 C 21,8 C 0,0 km/h (0 Bft)
12.08.2022 09:10 21,3 C 55 % 1019,1 hPa 0,0 l/m 0,0 km/h (0 Bft) O 97 5 min 446 W/m 11,9 C 21,3 C 0,0 km/h (0 Bft)
12.08.2022 09:05 20,8 C 56 % 1019,2 hPa 0,0 l/m 0,0 km/h (0 Bft) O 97 5 min 434 W/m 11,7 C 20,8 C 0,0 km/h (0 Bft)
12.08.2022 09:00 20,3 C 56 % 1019,2 hPa 0,0 l/m 0,0 km/h (0 Bft) O 97 5 min 420 W/m 11,2 C 20,3 C 0,0 km/h (0 Bft)
12.08.2022 08:55 19,8 C 58 % 1019,2 hPa 0,0 l/m 0,0 km/h (0 Bft) O 97 5 min 408 W/m 11,3 C 19,8 C 0,0 km/h (0 Bft)
12.08.2022 08:50 19,3 C 60 % 1019,2 hPa 0,0 l/m 0,0 km/h (0 Bft) O 97 5 min 394 W/m 11,3 C 19,3 C 0,0 km/h (0 Bft)
12.08.2022 08:45 18,8 C 62 % 1019,2 hPa 0,0 l/m 0,0 km/h (0 Bft) O 97 5 min 378 W/m 11,4 C 18,8 C 0,0 km/h (0 Bft)
12.08.2022 08:40 18,3 C 63 % 1019,2 hPa 0,0 l/m 0,0 km/h (0 Bft) O 97 5 min 364 W/m 11,1 C 18,3 C 0,0 km/h (0 Bft)
12.08.2022 08:35 17,8 C 65 % 1019,2 hPa 0,0 l/m 0,0 km/h (0 Bft) O 97 5 min 171 W/m 11,1 C 17,8 C 0,0 km/h (0 Bft)
12.08.2022 08:30 17,3 C 65 % 1019,2 hPa 0,0 l/m 0,0 km/h (0 Bft) O 97 0 min 125 W/m 10,7 C 17,3 C 0,0 km/h (0 Bft)
12.08.2022 08:25 17,1 C 68 % 1019,2 hPa 0,0 l/m 0,0 km/h (0 Bft) O 96 5 min 258 W/m 11,1 C 17,1 C 0,0 km/h (0 Bft)
12.08.2022 08:20 16,8 C 67 % 1019,2 hPa 0,0 l/m 0,0 km/h (0 Bft) O 96 0 min 33 W/m 10,6 C 16,8 C 0,0 km/h (0 Bft)
12.08.2022 08:15 16,4 C 67 % 1019,2 hPa 0,0 l/m 0,0 km/h (0 Bft) O 97 0 min 33 W/m 10,3 C 16,4 C 0,0 km/h (0 Bft)
12.08.2022 08:10 16,1 C 68 % 1019,2 hPa 0,0 l/m 0,0 km/h (0 Bft) O 97 0 min 32 W/m 10,2 C 16,1 C 0,0 km/h (0 Bft)
12.08.2022 08:05 15,7 C 69 % 1019,1 hPa 0,0 l/m 0,0 km/h (0 Bft) O 97 0 min 30 W/m 10,0 C 15,7 C 0,0 km/h (0 Bft)
12.08.2022 08:00 15,2 C 71 % 1019,1 hPa 0,0 l/m 0,0 km/h (0 Bft) O 97 0 min 30 W/m 10,0 C 15,2 C 0,0 km/h (0 Bft)
12.08.2022 07:55 14,7 C 72 % 1019,1 hPa 0,0 l/m 0,0 km/h (0 Bft) O 97 0 min 28 W/m 9,7 C 14,7 C 0,0 km/h (0 Bft)
12.08.2022 07:50 14,5 C 74 % 1019,1 hPa 0,0 l/m 0,0 km/h (0 Bft) O 97 0 min 28 W/m 9,9 C 14,5 C 0,0 km/h (0 Bft)
12.08.2022 07:45 14,2 C 74 % 1019,1 hPa 0,0 l/m 0,0 km/h (0 Bft) O 97 0 min 26 W/m 9,6 C 14,2 C 0,0 km/h (0 Bft)
12.08.2022 07:40 14,1 C 76 % 1019,0 hPa 0,0 l/m 0,0 km/h (0 Bft) O 97 0 min 26 W/m 9,9 C 14,1 C 0,0 km/h (0 Bft)
12.08.2022 07:35 13,9 C 77 % 1019,1 hPa 0,0 l/m 0,0 km/h (0 Bft) O 97 0 min 25 W/m 9,9 C 13,9 C 0,0 km/h (0 Bft)
12.08.2022 07:30 13,7 C 78 % 1019,1 hPa 0,0 l/m 0,0 km/h (0 Bft) O 97 0 min 25 W/m 9,9 C 13,7 C 0,0 km/h (0 Bft)
12.08.2022 07:25 13,4 C 78 % 1019,1 hPa 0,0 l/m 0,0 km/h (0 Bft) O 96 0 min 23 W/m 9,6 C 13,4 C 0,0 km/h (0 Bft)
12.08.2022 07:20 13,2 C 79 % 1019,0 hPa 0,0 l/m 0,0 km/h (0 Bft) O 97 0 min 23 W/m 9,6 C 13,2 C 0,0 km/h (0 Bft)
12.08.2022 07:15 13,1 C 77 % 1019,0 hPa 0,0 l/m 0,0 km/h (0 Bft) O 97 0 min 21 W/m 9,2 C 13,1 C 0,0 km/h (0 Bft)
12.08.2022 07:10 13,0 C 77 % 1019,0 hPa 0,0 l/m 0,0 km/h (0 Bft) O 96 0 min 21 W/m 9,1 C 13,0 C 0,0 km/h (0 Bft)
12.08.2022 07:05 12,9 C 77 % 1019,0 hPa 0,0 l/m 0,0 km/h (0 Bft) O 97 0 min 21 W/m 9,0 C 12,9 C 0,0 km/h (0 Bft)
12.08.2022 07:00 12,9 C 77 % 1019,0 hPa 0,0 l/m 0,0 km/h (0 Bft) O 97 0 min 18 W/m 9,0 C 12,9 C 0,0 km/h (0 Bft)
12.08.2022 06:55 12,8 C 77 % 1019,0 hPa 0,0 l/m 0,0 km/h (0 Bft) O 97 0 min 16 W/m 8,9 C 12,8 C 0,0 km/h (0 Bft)
12.08.2022 06:50 12,8 C 77 % 1018,9 hPa 0,0 l/m 0,0 km/h (0 Bft) O 96 0 min 16 W/m 8,9 C 12,8 C 0,0 km/h (0 Bft)
12.08.2022 06:45 12,8 C 76 % 1018,9 hPa 0,0 l/m 0,0 km/h (0 Bft) O 96 0 min 14 W/m 8,7 C 12,8 C 0,0 km/h (0 Bft)
12.08.2022 06:40 12,8 C 76 % 1018,9 hPa 0,0 l/m 0,0 km/h (0 Bft) O 96 0 min 12 W/m 8,7 C 12,8 C 0,0 km/h (0 Bft)
12.08.2022 06:35 12,8 C 76 % 1018,9 hPa 0,0 l/m 0,0 km/h (0 Bft) O 96 0 min 11 W/m 8,7 C 12,8 C 0,0 km/h (0 Bft)
12.08.2022 06:30 12,8 C 76 % 1018,8 hPa 0,0 l/m 0,0 km/h (0 Bft) O 96 0 min 9 W/m 8,7 C 12,8 C 0,0 km/h (0 Bft)
12.08.2022 06:25 12,9 C 76 % 1018,8 hPa 0,0 l/m 0,0 km/h (0 Bft) O 97 0 min 7 W/m 8,8 C 12,9 C 0,0 km/h (0 Bft)
12.08.2022 06:20 12,9 C 76 % 1018,8 hPa 0,0 l/m 0,0 km/h (0 Bft) O 97 0 min 5 W/m 8,8 C 12,9 C 0,0 km/h (0 Bft)
12.08.2022 06:15 13,0 C 75 % 1018,8 hPa 0,0 l/m 0,0 km/h (0 Bft) O 97 0 min 5 W/m 8,7 C 13,0 C 0,0 km/h (0 Bft)
12.08.2022 06:10 13,1 C 74 % 1018,8 hPa 0,0 l/m 0,0 km/h (0 Bft) O 96 0 min 0 W/m 8,6 C 13,1 C 0,0 km/h (0 Bft)
12.08.2022 06:05 13,2 C 74 % 1018,8 hPa 0,0 l/m 0,0 km/h (0 Bft) O 97 0 min 0 W/m 8,7 C 13,2 C 0,0 km/h (0 Bft)
12.08.2022 05:55 13,2 C 75 % 1018,8 hPa 0,0 l/m 0,0 km/h (0 Bft) N 0 0 min 0 W/m 8,9 C 13,2 C 0,0 km/h (0 Bft)
12.08.2022 05:50 13,1 C 74 % 1018,8 hPa 0,0 l/m 0,0 km/h (0 Bft) N 0 0 min 0 W/m 8,6 C 13,1 C 0,0 km/h (0 Bft)
12.08.2022 05:45 13,1 C 73 % 1018,7 hPa 0,0 l/m 0,0 km/h (0 Bft) N 0 0 min 0 W/m 8,4 C 13,1 C 0,0 km/h (0 Bft)
12.08.2022 05:40 13,1 C 73 % 1018,7 hPa 0,0 l/m 0,0 km/h (0 Bft) N 0 0 min 0 W/m 8,4 C 13,1 C 0,0 km/h (0 Bft)
12.08.2022 05:35 13,2 C 73 % 1018,7 hPa 0,0 l/m 0,0 km/h (0 Bft) N 0 0 min 0 W/m 8,5 C 13,2 C 0,0 km/h (0 Bft)
12.08.2022 05:30 13,2 C 72 % 1018,6 hPa 0,0 l/m 0,0 km/h (0 Bft) N 0 0 min 0 W/m 8,3 C 13,2 C 0,0 km/h (0 Bft)
12.08.2022 05:25 13,2 C 71 % 1018,6 hPa 0,0 l/m 0,0 km/h (0 Bft) N 0 0 min 0 W/m 8,1 C 13,2 C 0,0 km/h (0 Bft)
12.08.2022 05:20 13,3 C 70 % 1018,5 hPa 0,0 l/m 0,0 km/h (0 Bft) N 0 0 min 0 W/m 7,9 C 13,3 C 0,0 km/h (0 Bft)
12.08.2022 05:15 13,5 C 70 % 1018,6 hPa 0,0 l/m 0,0 km/h (0 Bft) N 0 0 min 0 W/m 8,1 C 13,5 C 0,0 km/h (0 Bft)
12.08.2022 05:10 13,6 C 70 % 1018,6 hPa 0,0 l/m 0,0 km/h (0 Bft) N 0 0 min 0 W/m 8,2 C 13,6 C 0,0 km/h (0 Bft)
12.08.2022 05:05 13,8 C 70 % 1018,5 hPa 0,0 l/m 0,0 km/h (0 Bft) N 0 0 min 0 W/m 8,4 C 13,8 C 0,0 km/h (0 Bft)
12.08.2022 05:00 13,9 C 70 % 1018,6 hPa 0,0 l/m 0,0 km/h (0 Bft) N 0 0 min 0 W/m 8,5 C 13,9 C 0,0 km/h (0 Bft)
12.08.2022 04:55 14,1 C 69 % 1018,6 hPa 0,0 l/m 0,0 km/h (0 Bft) N 0 0 min 0 W/m 8,5 C 14,1 C 0,0 km/h (0 Bft)
12.08.2022 04:50 14,3 C 68 % 1018,7 hPa 0,0 l/m 0,0 km/h (0 Bft) N 0 0 min 0 W/m 8,5 C 14,3 C 0,0 km/h (0 Bft)
12.08.2022 04:45 14,5 C 67 % 1018,7 hPa 0,0 l/m 0,0 km/h (0 Bft) N 0 0 min 0 W/m 8,4 C 14,5 C 0,0 km/h (0 Bft)
12.08.2022 04:40 14,8 C 66 % 1018,7 hPa 0,0 l/m 0,0 km/h (0 Bft) N 0 0 min 0 W/m 8,5 C 14,8 C 0,0 km/h (0 Bft)
12.08.2022 04:35 15,1 C 67 % 1018,6 hPa 0,0 l/m 0,0 km/h (0 Bft) N 0 0 min 0 W/m 9,0 C 15,1 C 0,0 km/h (0 Bft)
12.08.2022 04:30 15,3 C 67 % 1018,6 hPa 0,0 l/m 0,0 km/h (0 Bft) N 0 0 min 0 W/m 9,2 C 15,3 C 0,0 km/h (0 Bft)
12.08.2022 04:25 15,4 C 66 % 1018,6 hPa 0,0 l/m 0,0 km/h (0 Bft) N 0 0 min 0 W/m 9,1 C 15,4 C 0,0 km/h (0 Bft)
12.08.2022 04:20 15,7 C 65 % 1018,6 hPa 0,0 l/m 0,0 km/h (0 Bft) N 0 0 min 0 W/m 9,1 C 15,7 C 0,0 km/h (0 Bft)
12.08.2022 04:15 15,8 C 65 % 1018,7 hPa 0,0 l/m 0,0 km/h (0 Bft) N 0 0 min 0 W/m 9,2 C 15,8 C 0,0 km/h (0 Bft)
12.08.2022 04:10 15,9 C 66 % 1018,7 hPa 0,0 l/m 0,0 km/h (0 Bft) N 0 0 min 0 W/m 9,6 C 15,9 C 0,0 km/h (0 Bft)
12.08.2022 04:05 15,9 C 65 % 1018,7 hPa 0,0 l/m 0,0 km/h (0 Bft) N 0 0 min 0 W/m 9,3 C 15,9 C 0,0 km/h (0 Bft)
12.08.2022 04:00 16,0 C 64 % 1018,7 hPa 0,0 l/m 0,0 km/h (0 Bft) N 0 0 min 0 W/m 9,2 C 16,0 C 0,0 km/h (0 Bft)
12.08.2022 03:55 16,1 C 63 % 1018,7 hPa 0,0 l/m 0,0 km/h (0 Bft) N 0 0 min 0 W/m 9,1 C 16,1 C 0,0 km/h (0 Bft)
12.08.2022 03:50 16,2 C 63 % 1018,7 hPa 0,0 l/m 0,0 km/h (0 Bft) N 0 0 min 0 W/m 9,1 C 16,2 C 0,0 km/h (0 Bft)
12.08.2022 03:45 16,4 C 62 % 1018,7 hPa 0,0 l/m 0,0 km/h (0 Bft) N 0 0 min 0 W/m 9,1 C 16,4 C 0,0 km/h (0 Bft)
12.08.2022 03:40 16,6 C 61 % 1018,8 hPa 0,0 l/m 0,0 km/h (0 Bft) N 0 0 min 0 W/m 9,0 C 16,6 C 0,0 km/h (0 Bft)
12.08.2022 03:35 16,9 C 60 % 1018,8 hPa 0,0 l/m 0,0 km/h (0 Bft) N 0 0 min 0 W/m 9,1 C 16,9 C 0,0 km/h (0 Bft)
12.08.2022 03:30 17,2 C 59 % 1018,8 hPa 0,0 l/m 0,0 km/h (0 Bft) N 0 0 min 0 W/m 9,1 C 17,2 C 0,0 km/h (0 Bft)
12.08.2022 03:25 17,4 C 59 % 1018,8 hPa 0,0 l/m 0,0 km/h (0 Bft) N 0 0 min 0 W/m 9,3 C 17,4 C 0,0 km/h (0 Bft)
12.08.2022 03:20 17,6 C 59 % 1018,8 hPa 0,0 l/m 0,0 km/h (0 Bft) N 0 0 min 0 W/m 9,5 C 17,6 C 0,0 km/h (0 Bft)
12.08.2022 03:15 17,6 C 58 % 1018,7 hPa 0,0 l/m 0,0 km/h (0 Bft) N 0 0 min 0 W/m 9,2 C 17,6 C 0,0 km/h (0 Bft)
12.08.2022 03:10 17,4 C 58 % 1018,8 hPa 0,0 l/m 0,0 km/h (0 Bft) N 0 0 min 0 W/m 9,1 C 17,4 C 0,0 km/h (0 Bft)
12.08.2022 03:05 17,3 C 59 % 1018,7 hPa 0,0 l/m 0,0 km/h (0 Bft) N 0 0 min 0 W/m 9,2 C 17,3 C 0,0 km/h (0 Bft)
12.08.2022 03:00 17,3 C 59 % 1018,7 hPa 0,0 l/m 0,0 km/h (0 Bft) N 0 0 min 0 W/m 9,2 C 17,3 C 0,0 km/h (0 Bft)
12.08.2022 02:55 17,2 C 59 % 1018,7 hPa 0,0 l/m 0,0 km/h (0 Bft) N 0 0 min 0 W/m 9,1 C 17,2 C 0,0 km/h (0 Bft)
12.08.2022 02:50 17,3 C 59 % 1018,6 hPa 0,0 l/m 0,0 km/h (0 Bft) N 0 0 min 0 W/m 9,2 C 17,3 C 0,0 km/h (0 Bft)
12.08.2022 02:45 17,6 C 58 % 1018,6 hPa 0,0 l/m 0,0 km/h (0 Bft) N 0 0 min 0 W/m 9,2 C 17,6 C 0,0 km/h (0 Bft)
12.08.2022 02:40 17,7 C 58 % 1018,6 hPa 0,0 l/m 0,0 km/h (0 Bft) N 0 0 min 0 W/m 9,3 C 17,7 C 0,0 km/h (0 Bft)
12.08.2022 02:35 17,7 C 58 % 1018,6 hPa 0,0 l/m 0,0 km/h (0 Bft) N 0 0 min 0 W/m 9,3 C 17,7 C 0,0 km/h (0 Bft)
12.08.2022 02:30 17,7 C 57 % 1018,6 hPa 0,0 l/m 0,0 km/h (0 Bft) N 0 0 min 0 W/m 9,1 C 17,7 C 0,0 km/h (0 Bft)
12.08.2022 02:25 17,8 C 57 % 1018,6 hPa 0,0 l/m 0,0 km/h (0 Bft) O 90 0 min 0 W/m 9,2 C 17,8 C 4,8 km/h (1 Bft)
12.08.2022 02:20 18,1 C 56 % 1018,5 hPa 0,0 l/m 0,0 km/h (0 Bft) N 0 0 min 0 W/m 9,2 C 18,1 C 0,0 km/h (0 Bft)
12.08.2022 02:15 18,2 C 57 % 1018,5 hPa 0,0 l/m 0,0 km/h (0 Bft) N 0 0 min 0 W/m 9,5 C 18,2 C 0,0 km/h (0 Bft)
12.08.2022 02:10 18,4 C 57 % 1018,5 hPa 0,0 l/m 0,0 km/h (0 Bft) N 0 0 min 0 W/m 9,7 C 18,4 C 0,0 km/h (0 Bft)
12.08.2022 02:05 18,5 C 57 % 1018,4 hPa 0,0 l/m 0,0 km/h (0 Bft) N 0 0 min 0 W/m 9,8 C 18,5 C 0,0 km/h (0 Bft)
12.08.2022 02:00 18,7 C 55 % 1018,4 hPa 0,0 l/m 0,0 km/h (0 Bft) N 0 0 min 0 W/m 9,5 C 18,7 C 0,0 km/h (0 Bft)
12.08.2022 01:55 18,9 C 54 % 1018,5 hPa 0,0 l/m 0,0 km/h (0 Bft) N 0 0 min 0 W/m 9,4 C 18,9 C 0,0 km/h (0 Bft)
12.08.2022 01:50 19,1 C 52 % 1018,5 hPa 0,0 l/m 0,0 km/h (0 Bft) N 0 0 min 0 W/m 9,0 C 19,1 C 0,0 km/h (0 Bft)
12.08.2022 01:45 19,5 C 53 % 1018,4 hPa 0,0 l/m 0,0 km/h (0 Bft) N 0 0 min 0 W/m 9,7 C 19,5 C 0,0 km/h (0 Bft)
12.08.2022 01:40 19,7 C 52 % 1018,5 hPa 0,0 l/m 0,0 km/h (0 Bft) N 0 0 min 0 W/m 9,6 C 19,7 C 0,0 km/h (0 Bft)
12.08.2022 01:35 19,8 C 52 % 1018,4 hPa 0,0 l/m 0,0 km/h (0 Bft) N 0 0 min 0 W/m 9,7 C 19,8 C 0,0 km/h (0 Bft)
12.08.2022 01:30 20,1 C 51 % 1018,5 hPa 0,0 l/m 0,0 km/h (0 Bft) N 0 0 min 0 W/m 9,6 C 20,1 C 0,0 km/h (0 Bft)
12.08.2022 01:25 20,3 C 51 % 1018,5 hPa 0,0 l/m 0,0 km/h (0 Bft) N 0 0 min 0 W/m 9,8 C 20,3 C 0,0 km/h (0 Bft)
12.08.2022 01:20 20,6 C 50 % 1018,5 hPa 0,0 l/m 0,0 km/h (0 Bft) N 0 0 min 0 W/m 9,8 C 20,6 C 0,0 km/h (0 Bft)
12.08.2022 01:15 20,9 C 49 % 1018,5 hPa 0,0 l/m 0,0 km/h (0 Bft) N 0 0 min 0 W/m 9,8 C 20,9 C 0,0 km/h (0 Bft)
12.08.2022 01:10 21,2 C 48 % 1018,5 hPa 0,0 l/m 0,0 km/h (0 Bft) N 0 0 min 0 W/m 9,7 C 21,2 C 0,0 km/h (0 Bft)
12.08.2022 01:05 21,6 C 47 % 1018,5 hPa 0,0 l/m 0,0 km/h (0 Bft) N 0 0 min 0 W/m 9,8 C 21,6 C 0,0 km/h (0 Bft)
12.08.2022 01:00 21,8 C 45 % 1018,5 hPa 0,0 l/m 0,0 km/h (0 Bft) N 0 0 min 0 W/m 9,3 C 21,8 C 0,0 km/h (0 Bft)
12.08.2022 00:55 22,3 C 44 % 1018,5 hPa 0,0 l/m 0,0 km/h (0 Bft) O 90 0 min 0 W/m 9,5 C 22,3 C 1,6 km/h (1 Bft)
12.08.2022 00:50 22,8 C 42 % 1018,5 hPa 0,0 l/m 0,0 km/h (0 Bft) O 90 0 min 0 W/m 9,2 C 22,8 C 3,2 km/h (1 Bft)
12.08.2022 00:45 23,2 C 39 % 1018,5 hPa 0,0 l/m 0,0 km/h (0 Bft) N 0 0 min 0 W/m 8,5 C 23,2 C 0,0 km/h (0 Bft)
12.08.2022 00:40 23,4 C 39 % 1018,4 hPa 0,0 l/m 0,0 km/h (0 Bft) O 90 0 min 0 W/m 8,6 C 23,4 C 3,2 km/h (1 Bft)
12.08.2022 00:35 23,6 C 38 % 1018,3 hPa 0,0 l/m 0,0 km/h (0 Bft) N 0 0 min 0 W/m 8,4 C 23,6 C 0,0 km/h (0 Bft)
12.08.2022 00:30 23,7 C 38 % 1018,4 hPa 0,0 l/m 0,0 km/h (0 Bft) O 90 0 min 0 W/m 8,5 C 23,7 C 9,7 km/h (2 Bft)
12.08.2022 00:25 23,8 C 38 % 1018,4 hPa 0,0 l/m 0,0 km/h (0 Bft) N 0 0 min 0 W/m 8,6 C 23,8 C 0,0 km/h (0 Bft)
12.08.2022 00:20 24,1 C 37 % 1018,3 hPa 0,0 l/m 0,0 km/h (0 Bft) N 0 0 min 0 W/m 8,5 C 24,1 C 0,0 km/h (0 Bft)
12.08.2022 00:15 24,3 C 36 % 1018,4 hPa 0,0 l/m 0,0 km/h (0 Bft) O 90 0 min 0 W/m 8,3 C 24,3 C 1,6 km/h (1 Bft)
12.08.2022 00:10 24,7 C 36 % 1018,3 hPa 0,0 l/m 0,0 km/h (0 Bft) O 90 0 min 0 W/m 8,6 C 24,7 C 4,8 km/h (1 Bft)
12.08.2022 00:05 24,8 C 35 % 1018,3 hPa 0,0 l/m 0,0 km/h (0 Bft) N 0 0 min 0 W/m 8,3 C 24,8 C 0,0 km/h (0 Bft)
12.08.2022 00:00 24,9 C 36 % 1018,3 hPa 0,0 l/m 0,0 km/h (0 Bft) N 0 0 min 0 W/m 8,8 C 24,9 C 0,0 km/h (0 Bft)
_ Min-Zeit 06:30 15:55 19:30 - 00:00 - - - - 19:30 06:30 00:00
Minimum _ 12,8 C 23 % 1015,1 hPa - 0,0 km/h (0 Bft) - - - - 7,0 C 12,8 C 0,0 km/h (0 Bft)
_ Max-Zeit 15:55 07:20 08:10 00:00 10:30 - - 08:25 14:20 09:30 15:50 10:30
Maximum _ 31,7 C 79 % 1019,2 hPa 0,0 l/m 15,7 km/h
SO (3 Bft)
- - 5 min 838 W/m 12,2 C 31,6 C 27,4 km/h
O-SO (5 Bft)
Durchschnitt _ 23,6 C 43 % 1017,5 hPa #0,0 l/m 1,0 km/h (0 Bft) O-SO - #9:50 h 418 W/m 8,8 C 23,6 C 5,6 km/h (2 Bft)